Location: Unnamed
(23.5608°S, 46.6833°W)
Time: 07:12:22
(UTC-03:00)

Tiros 4 - Pass Details

Date: 13 December 2023
Orbit: 683 x 793 km, 48.3° (Epoch: 21 February)

Event Time Altitude Azimuth Distance (km) Brightness Sun altitude
Rises 04:40:33 0° 210° (SSW) 3,291 10.3 -7.6°
Reaches altitude 10° 04:43:45 10° 192° (SSW) 2,345 9.8 -6.9°
Maximum altitude 04:47:37 19° 147° (SSE) 1,768 9.9 -6.2°
Drops below altitude 10° 04:51:24 10° 102° (ESE) 2,290 11.0 -5.4°
Sets 04:54:28 0° 84° (E) 3,187 11.3 -4.8°
